Preview of NWS' New Version of Forecast
This preview is not operational and should not be used for support decisions.

Regional Weather Roundup (RWR)

Issued by National Weather Service (NWS)

                            
000
ASUS46 KSEW 211210
RWRWA 

WASHINGTON REGIONAL WEATHER ROUNDUP
NATIONAL WEATHER SERVICE SEATTLE WA
400 AM PST THU FEB 21 2019

NOTE:"FAIR" INDICATES FEW OR NO CLOUDS BELOW 12,000 FEET WITH NO 
SIGNIFICANT WEATHER AND/OR OBSTRUCTIONS TO VISIBILITY.

WAZ507-509-555>559-211300-
SEATTLE, TACOMA, EVERETT, AND VICINITY
  
CITY           SKY/WX    TMP DP  RH WIND       PRES   REMARKS
EVERETT        CLEAR     33  32  96 NE3       30.06S                  
6HR MIN TEMP:  30; 6HR MAX TEMP:  38;                                

BOEING FIELD   CLEAR     35  30  82 CALM      30.07S                  
6HR MIN TEMP:  35; 6HR MAX TEMP:  41;                                

RENTON         CLEAR     32  29  88 E5        30.08R                  
6HR MIN TEMP:  32; 6HR MAX TEMP:  41;                                

SEATAC AIRPORT PTCLDY    37  31  78 CALM      30.06R                  
6HR MIN TEMP:  36; 6HR MAX TEMP:  40;                                

JBLM-MCCHORD   CLOUDY    33  33 100 CALM      30.07R                  
6HR MIN TEMP:  29; 6HR MAX TEMP:  38;                                

PUYALLUP       CLOUDY    30  32 100 CALM      30.06S                  
BREMERTON      CLEAR     27  26  96 VRB3      30.06S                  
6HR MIN TEMP:  25; 6HR MAX TEMP:  37;                                

JBLM-FT LEWIS  CLOUDY    32  32 100 CALM      30.06S                  
6HR MIN TEMP:  29; 6HR MAX TEMP:  32;                                

TACOMA NARROWS PTCLDY    38  31  76 N7        30.06S                  
6HR MIN TEMP:  38; 6HR MAX TEMP:  40;                                

$$
 
WAZ001-503-506-510-514-515-211300-
NORTH INTERIOR
  
CITY           SKY/WX    TMP DP  RH WIND       PRES   REMARKS
BELLINGHAM     CLEAR     31  21  66 N3        30.10R                  
6HR MIN TEMP:  30; 6HR MAX TEMP:  34;                                

FRIDAY HARBOR  CLEAR     39  32  76 N5        30.12R                  
6HR MIN TEMP:  36; 6HR MAX TEMP:  40;                                

EASTSOUND      CLEAR     39  28  65 VRB5      30.11R                  
PORT ANGELES   PTCLDY    30  28  92 SW7       30.12R                  
6HR MIN TEMP:  27; 6HR MAX TEMP:  33;                                

EDIZ HOOK      PTSUNNY   38  34  85 W3        30.13R                  
6HR MIN TEMP:  36; 6HR MAX TEMP:  38;                                

PORT TOWNSEND  FAIR      34  28  80 NW5       30.09R                  
NAS WHIDBEY    PTCLDY    30  26  85 CALM      30.13R                  
6HR MIN TEMP:  30; 6HR MAX TEMP:  39;                                

ARLINGTON      PTCLDY    23  21  93 N5        30.10R FOG              
6HR MIN TEMP:  23; 6HR MAX TEMP:  31;                                

BURLINGTON     CLEAR     30  28  93 NE6       30.09R                  
$$
 
WAZ020-022-039-040-504-511-512-211300-
SOUTHWEST INTERIOR
  
CITY           SKY/WX    TMP DP  RH WIND       PRES   REMARKS
SHELTON        CLEAR     23  20  88 W3        30.05S                  
6HR MIN TEMP:  23; 6HR MAX TEMP:  30;                                

OLYMPIA        PTCLDY    27  26  96 CALM      30.07R                  
6HR MIN TEMP:  27; 6HR MAX TEMP:  35;                                

CHEHALIS       CLOUDY    30  30 100 CALM      30.06F FOG              
KELSO          CLEAR     28  27  96 CALM      30.08R                  
6HR MIN TEMP:  26; 6HR MAX TEMP:  36;                                

VANCOUVER      CLEAR     29  27  92 CALM      30.05S                  
6HR MIN TEMP:  29; 6HR MAX TEMP:  38; 6HR PCP:  0.01;                

SCAPPOOSE, OR  CLEAR     31  28  89 CALM      30.05R                  
6HR MIN TEMP:  30; 6HR MAX TEMP:  37;                                

PORTLAND, OR   MOCLDY    35  32  88 CALM      30.06R                  
6HR MIN TEMP:  34; 6HR MAX TEMP:  38;                                

$$
 
WAZ021-516-517-211300-
WASHINGTON COAST
  
CITY           SKY/WX    TMP DP  RH WIND       PRES   REMARKS
FORKS          CLEAR     28  27  96 CALM      30.09R                  
6HR MIN TEMP:  25; 6HR MAX TEMP:  33;                                

HOQUIAM        CLEAR     31  30  96 N3        30.08R                  
6HR MIN TEMP:  30; 6HR MAX TEMP:  35;                                

ASTORIA, OR    CLEAR     29  28  96 SE3       30.05S                  
6HR MIN TEMP:  29; 6HR MAX TEMP:  38;                                

$$
 
WAZ019-023-024-040-567>569-211300-
CASCADE MOUNTAINS AND COLUMBIA GORGE
  
CITY           SKY/WX    TMP DP  RH WIND       PRES   REMARKS
STAMPEDE PASS  CLEAR     21  15  78 CALM      29.89R                  
6HR MIN TEMP:  20; 6HR MAX TEMP:  22;                                

TROUTDALE, OR  CLEAR     33  28  81 NE3       30.06R                  
6HR MIN TEMP:  33; 6HR MAX TEMP:  36;                                

HOOD RIVER, OR MOSUNNY   25  23  93 CALM      30.05S FOG              
THE DALLES, OR CLOUDY    30  27  88 CALM      30.06S                  
6HR MIN TEMP:  28; 6HR MAX TEMP:  32;                                

$$

WAZ026-027-041>044-520-521-211300-
EAST SLOPES
  
CITY           SKY/WX    TMP DP  RH WIND       PRES   REMARKS
OMAK           CLOUDY    31  23  72 NW10      30.05R WCI  22          
6HR MIN TEMP:  30; 6HR MAX TEMP:  32;                                

WENATCHEE      CLOUDY    25  20  81 CALM      30.03R                  
6HR MIN TEMP:  22; 6HR MAX TEMP:  27;                                

ELLENSBURG     MOCLDY    27  14  58 E3        29.99R HAZE             
6HR MIN TEMP:  16; 6HR MAX TEMP:  27;                                

YAKIMA         CLOUDY    19  15  84 W10       30.02R WCI   7          
6HR MIN TEMP:  14; 6HR MAX TEMP:  19;                                

SUNNYSIDE ARPT PTSUNNY   17  16  94 N3        30.03  FOG              
6HR MIN TEMP:  15; 6HR MAX TEMP:  19;                                

YAKIMA TC      PTSUNNY   19  15  84 CALM      29.99R                  
6HR MIN TEMP:  16; 6HR MAX TEMP:  24;                                

$$

WAZ028-034-035-211300-
COLUMBIA BASIN
  
CITY           SKY/WX    TMP DP  RH WIND       PRES   REMARKS
EPHRATA        CLOUDY    21  15  78 N3        29.99R                  
6HR MIN TEMP:  14; 6HR MAX TEMP:  29;                                

MOSES LAKE     CLOUDY    19  13  77 N5        30.01R                  
6HR MIN TEMP:  17; 6HR MAX TEMP:  22;                                

PASCO          CLOUDY    23  20  88 CALM      30.05R                  
6HR MIN TEMP:  19; 6HR MAX TEMP:  27;                                

RICHLAND ARPT  CLOUDY    23  22  97 CALM      30.05  FOG              
6HR MIN TEMP:  20; 6HR MAX TEMP:  25;                                

HERMISTON, OR  CLOUDY    29  25  85 NW3       30.02R                  
6HR MIN TEMP:  28; 6HR MAX TEMP:  31; 6HR PCP: TRACE;                

$$

WAZ036>038-211300-
NORTHEAST WASHINGTON
  
CITY           SKY/WX    TMP DP  RH WIND       PRES   REMARKS
SPOKANE GEIGER PTCLDY    17  14  88 N5        29.94R                  
6HR MIN TEMP:  12; 6HR MAX TEMP:  20;                                

SPOKANE FELTS  PTCLDY    14  11  87 CALM      29.97S FOG              
6HR MIN TEMP:  14; 6HR MAX TEMP:  22;                                

FAIRCHILD AFB  CLEAR     16  15  97 NE8       29.92R                  
6HR MIN TEMP:  16; 6HR MAX TEMP:  21;                                

COEURDALENE,ID CLEAR     17  13  84 NE12      29.96R WCI   4          
6HR MIN TEMP:  13; 6HR MAX TEMP:  20;                                

DEER PARK      CLEAR      9   6  88 N6        29.97R                  
6HR MIN TEMP:   6; 6HR MAX TEMP:  19;                                

$$

WAZ029>033-211300-
SOUTHEAST WASHINGTON
  
CITY           SKY/WX    TMP DP  RH WIND       PRES   REMARKS
PULLMAN        FOG       20  18  92 CALM      29.91R VSB 1/4          
6HR MIN TEMP:  20; 6HR MAX TEMP:  21;                                

LEWISTON, ID   LGT SNOW  26  23  88 CALM      29.96R FOG              
6HR MIN TEMP:  25; 6HR MAX TEMP:  27; 6HR PCP:  0.02;                

WALLA WALLA    CLOUDY    27  24  89 S7        29.98R FOG              
6HR MIN TEMP:  27; 6HR MAX TEMP:  27; 6HR PCP:  0.03;                

PENDLETON, OR  LGT SNOW  27  24  89 W8        29.96S FOG              
6HR MIN TEMP:  27; 6HR MAX TEMP:  28; 6HR PCP: TRACE;                

$$